CW7563 Weather Reports


Display with metric or nautical units.
time (UTC)temp
F
wind
direction
speed
MPH
gust
MPH
rain 1hr
in
rain 24hr
in
rain mn
in
humidity
%
barometer
mb
20260505182306 59 124 2.0 7.0 0.00 0.00 0.00 77 1015.9
20260505181306 59 232 2.0 7.0 0.00 0.00 0.00 78 1015.7
20260505180307 59 241 1.0 3.0 0.00 0.00 0.00 78 1015.9
20260505175806 59 268 3.0 5.0 0.00 0.00 0.00 79 1015.8
20260505175306 58 264 3.0 6.0 0.00 0.00 0.00 79 1015.9
20260505174806 58 189 3.0 5.0 0.00 0.00 0.00 79 1015.9
20260505174306 57 265 1.0 3.0 0.00 0.00 0.00 80 1015.9
20260505173806 58 255 3.0 6.0 0.00 0.00 0.00 80 1015.9
20260505173306 57 302 2.0 5.0 0.00 0.00 0.00 80 1015.8
20260505172806 57 226 2.0 5.0 0.00 0.00 0.00 80 1015.8
20260505172306 57 235 2.0 6.0 0.00 0.00 0.00 80 1015.8
20260505171807 57 242 1.0 5.0 0.00 0.00 0.00 81 1015.8
20260505170806 57 226 2.0 5.0 0.00 0.00 0.00 82 1015.7
20260505165806 56 179 2.0 5.0 0.00 0.00 0.00 82 1015.6
20260505164806 56 244 2.0 5.0 0.00 0.00 0.00 82 1015.6
20260505164306 56 242 3.0 7.0 0.00 0.00 0.00 83 1015.6
20260505163806 56 236 3.0 6.0 0.00 0.00 0.00 83 1015.6
20260505163306 56 174 3.0 5.0 0.00 0.00 0.00 84 1015.5
20260505162805 56 229 2.0 5.0 0.00 0.00 0.00 84 1015.5
20260505162307 56 169 3.0 5.0 0.00 0.00 0.00 84 1015.5
20260505161806 55 236 1.0 5.0 0.00 0.00 0.00 84 1015.4
20260505161306 55 151 3.0 6.0 0.00 0.00 0.00 84 1015.4
20260505160805 56 237 1.0 3.0 0.00 0.00 0.00 84 1015.4
20260505160306 55 225 1.0 3.0 0.00 0.00 0.00 85 1015.4
20260505153306 55 187 2.0 5.0 0.00 0.00 0.00 85 1015.5
20260505152806 55 146 2.0 3.0 0.00 0.00 0.00 85 1015.4
20260505152306 55 203 2.0 3.0 0.00 0.00 0.00 85 1015.3
20260505151806 55 188 2.0 3.0 0.00 0.00 0.00 86 1015.3
20260505151307 55 186 4.0 7.0 0.00 0.00 0.00 85 1015.3
20260505150805 55 182 3.0 5.0 0.00 0.00 0.00 85 1015.3
20260505150306 54 181 2.0 3.0 0.00 0.00 0.00 86 1015.3
20260505140306 54 167 3.0 7.0 0.00 0.00 0.00 86 1014.7
20260505130305 53 180 2.0 3.0 0.00 0.00 0.00 87 1014.5
20260505124805 53 156 2.0 3.0 0.00 0.00 0.00 87 1014.5
20260505124306 53 151 1.0 3.0 0.00 0.00 0.00 87 1014.4
20260505123806 53 231 2.0 5.0 0.00 0.00 0.00 87 1014.3
20260505123305 53 153 1.0 3.0 0.00 0.00 0.00 88 1014.3
20260505122806 53 202 2.0 3.0 0.00 0.00 0.00 88 1014.3
20260505122306 53 205 1.0 3.0 0.00 0.00 0.00 88 1014.4
20260505121805 53 205 1.0 3.0 0.00 0.00 0.00 88 1014.4
20260505121305 53 206 1.0 2.0 0.00 0.00 0.00 88 1014.3
20260505120806 53 205 1.0 2.0 0.00 0.00 0.00 88 1014.3
20260505120306 53 206 2.0 3.0 0.00 0.00 0.00 88 1014.2
20260505114806 53 206 0.0 3.0 0.00 0.00 0.00 89 1014.2
20260505113806 53 199 1.0 2.0 0.00 0.00 0.00 89 1014.2
20260505113306 53 199 1.0 2.0 0.00 0.00 0.00 89 1014.2
20260505112805 53 199 1.0 3.0 0.00 0.00 0.00 89 1014.3
20260505112305 53 199 2.0 5.0 0.00 0.00 0.00 89 1014.2
20260505111305 53 206 3.0 3.0 0.00 0.00 0.00 89 1014.1
20260505110805 53 184 1.0 3.0 0.00 0.00 0.00 89 1014.1
20260505101805 52 169 1.0 3.0 0.00 0.00 0.00 90 1013.6
20260505101305 52 169 0.0 1.0 0.00 0.00 0.00 90 1013.6
20260505100805 52 169 0.0 2.0 0.00 0.00 0.00 90 1013.7
20260505095805 52 166 1.0 5.0 0.00 0.00 0.00 90 1013.6
20260505095305 52 194 2.0 3.0 0.00 0.00 0.00 90 1013.7
20260505094805 52 157 2.0 3.0 0.00 0.00 0.00 90 1013.7
20260505094305 52 157 2.0 3.0 0.00 0.00 0.00 90 1013.6
20260505093805 52 153 2.0 3.0 0.00 0.00 0.00 90 1013.6
20260505093305 52 153 2.0 3.0 0.00 0.00 0.00 90 1013.5
20260505092805 52 161 2.0 3.0 0.00 0.00 0.00 89 1013.4
20260505092305 52 213 0.0 3.0 0.00 0.00 0.00 89 1013.4
20260505091805 52 205 2.0 3.0 0.00 0.00 0.00 89 1013.4
20260505090805 52 186 2.0 5.0 0.00 0.00 0.00 89 1013.4
20260505090305 52 153 2.0 3.0 0.00 0.00 0.00 89 1013.3
20260505085805 52 189 3.0 6.0 0.00 0.00 0.00 89 1013.2
20260505085305 52 171 3.0 5.0 0.00 0.00 0.00 88 1013.2
20260505084805 53 188 3.0 5.0 0.00 0.00 0.00 88 1013.1
20260505084305 53 159 3.0 6.0 0.00 0.00 0.00 88 1013.2
20260505083805 53 193 3.0 8.0 0.00 0.00 0.00 88 1013.2
20260505083305 53 216 2.0 5.0 0.00 0.00 0.00 88 1013.3
20260505082805 53 157 2.0 3.0 0.00 0.00 0.00 87 1013.3
20260505082305 53 159 3.0 5.0 0.00 0.00 0.00 87 1013.3
20260505081805 53 174 1.0 3.0 0.00 0.00 0.00 87 1013.2
20260505081305 53 145 2.0 5.0 0.00 0.00 0.00 87 1013.2
20260505080805 53 140 1.0 3.0 0.00 0.00 0.00 86 1013.1
20260505075805 54 201 3.0 5.0 0.00 0.00 0.00 86 1013.0
20260505075305 54 175 1.0 5.0 0.00 0.00 0.00 86 1013.0
20260505074305 54 188 1.0 5.0 0.00 0.00 0.00 85 1012.8
20260505073305 54 201 3.0 5.0 0.00 0.00 0.00 85 1012.6
20260505072805 54 172 3.0 8.0 0.00 0.00 0.00 85 1012.6
20260505071804 55 206 3.0 7.0 0.00 0.00 0.00 84 1012.5
20260505071305 55 150 5.0 8.0 0.00 0.00 0.00 84 1012.5
20260505070817 55 235 2.0 3.0 0.00 0.00 0.00 83 1012.5
20260505070305 55 220 1.0 2.0 0.00 0.00 0.00 83 1012.4
20260505065804 55 43 3.0 6.0 0.00 0.00 0.00 83 1012.4
20260505065305 55 193 3.0 7.0 0.00 0.00 0.00 83 1012.3
20260505064805 56 178 2.0 5.0 0.00 0.00 0.00 83 1012.3
20260505064304 56 146 3.0 7.0 0.00 0.00 0.00 83 1012.2
20260505062305 56 181 3.0 6.0 0.00 0.00 0.00 82 1011.9
20260505061805 56 157 3.0 9.0 0.00 0.00 0.00 82 1011.9
20260505061305 57 170 2.0 6.0 0.00 0.00 0.00 81 1011.8
20260505060804 57 186 3.0 10.0 0.00 0.00 0.00 81 1011.8
20260505060305 57 165 3.0 10.0 0.00 0.00 0.00 81 1011.9
20260505055805 57 174 4.0 8.0 0.00 0.00 0.00 80 1011.8
20260505055305 57 181 3.0 9.0 0.00 0.00 0.00 80 1011.7
20260505054805 58 168 4.0 8.0 0.00 0.00 0.00 80 1011.6
20260505054304 58 161 5.0 9.0 0.00 0.00 0.00 80 1011.6
20260505053805 58 179 4.0 10.0 0.00 0.00 0.00 80 1011.5
20260505053305 58 173 4.0 12.0 0.00 0.00 0.00 79 1011.4
20260505052804 58 159 6.0 12.0 0.00 0.00 0.00 79 1011.4
20260505052305 59 166 5.0 12.0 0.00 0.00 0.00 78 1011.4
20260505051804 59 189 6.0 10.0 0.00 0.00 0.00 78 1011.4
20260505051304 59 174 4.0 10.0 0.00 0.00 0.00 78 1011.2
20260505050805 60 185 5.0 9.0 0.00 0.00 0.00 77 1011.3
20260505050305 60 198 4.0 9.0 0.00 0.00 0.00 77 1011.3
20260505041304 64 161 2.0 6.0 0.00 0.00 0.00 73 1010.5
20260505040804 64 185 3.0 6.0 0.00 0.00 0.00 73 1010.4
20260505040305 65 173 3.0 8.0 0.00 0.00 0.00 72 1010.3
20260505035804 65 191 3.0 7.0 0.00 0.00 0.00 72 1010.2
20260505035305 65 186 3.0 7.0 0.00 0.00 0.00 71 1010.1
20260505034305 66 187 3.0 6.0 0.00 0.00 0.00 70 1010.0
20260505033804 66 178 3.0 7.0 0.00 0.00 0.00 70 1009.9
20260505033305 67 195 2.0 5.0 0.00 0.00 0.00 69 1009.8
20260505032807 67 191 3.0 7.0 0.00 0.00 0.00 69 1009.8
20260505032307 67 198 4.0 9.0 0.00 0.00 0.00 68 1009.8
20260505031307 68 168 1.0 3.0 0.00 0.00 0.00 69 1009.6
20260505030807 68 197 3.0 7.0 0.00 0.00 0.00 68 1009.5
20260505030308 69 213 2.0 5.0 0.00 0.00 0.00 68 1009.5
20260505025807 69 230 2.0 9.0 0.00 0.00 0.00 68 1009.4
20260505025307 69 195 2.0 6.0 0.00 0.00 0.00 68 1009.3
20260505024807 69 158 2.0 7.0 0.00 0.00 0.00 67 1009.2
20260505024308 70 226 2.0 6.0 0.00 0.00 0.00 67 1009.2
20260505023807 70 226 3.0 8.0 0.00 0.00 0.00 67 1009.1
20260505023307 71 220 5.0 10.0 0.00 0.00 0.00 66 1009.1
20260505022308 71 237 3.0 6.0 0.00 0.00 0.00 66 1009.0
20260505021807 71 175 5.0 10.0 0.00 0.00 0.00 66 1009.0
20260505021307 72 199 3.0 10.0 0.00 0.00 0.00 66 1008.9
20260505020807 72 199 3.0 12.0 0.00 0.00 0.00 66 1008.9
20260505020307 72 158 2.0 5.0 0.00 0.00 0.00 65 1009.0
20260505015307 72 185 5.0 10.0 0.00 0.00 0.00 65 1009.0
20260505014807 72 173 3.0 13.0 0.00 0.00 0.00 65 1009.0
20260505014307 72 168 5.0 9.0 0.00 0.00 0.00 64 1009.0
20260505013807 72 231 3.0 9.0 0.00 0.00 0.00 64 1009.1
20260505013307 73 208 5.0 12.0 0.00 0.00 0.00 64 1009.1
20260505012807 73 224 5.0 9.0 0.00 0.00 0.00 65 1009.2
20260505012307 73 157 4.0 7.0 0.00 0.00 0.00 64 1009.2
20260505011807 73 222 3.0 9.0 0.00 0.00 0.00 64 1009.3
20260505011307 73 156 3.0 7.0 0.00 0.00 0.00 65 1009.4
20260505010807 72 189 3.0 10.0 0.00 0.00 0.00 65 1009.4
20260505010307 72 183 6.0 12.0 0.00 0.00 0.00 65 1009.5
20260505005807 72 192 7.0 12.0 0.00 0.00 0.00 64 1009.5
20260505005306 72 169 3.0 8.0 0.00 0.00 0.00 65 1009.5
20260505004807 72 165 5.0 9.0 0.00 0.00 0.00 65 1009.5
20260505004307 72 180 6.0 10.0 0.00 0.00 0.00 64 1009.5
20260505003807 73 188 3.0 8.0 0.00 0.00 0.00 64 1009.4
20260505003307 72 158 5.0 10.0 0.00 0.00 0.00 64 1009.4
20260505002807 72 139 4.0 9.0 0.00 0.00 0.00 65 1009.5
20260505002307 72 166 7.0 13.0 0.00 0.00 0.00 64 1009.6
20260505000807 72 135 3.0 15.0 0.00 0.00 0.00 64 1009.7
20260504235806 72 194 6.0 12.0 0.00 0.00 0.00 64 1009.8
20260504235307 72 195 3.0 12.0 0.00 0.00 0.00 64 1009.7
20260504234807 73 183 5.0 10.0 0.00 0.00 0.00 63 1009.8
20260504234306 72 160 3.0 10.0 0.00 0.00 0.00 64 1009.8
20260504233807 72 181 5.0 12.0 0.00 0.00 0.00 64 1009.9
20260504233307 72 173 6.0 12.0 0.00 0.00 0.00 63 1010.0
20260504232806 72 174 3.0 12.0 0.00 0.00 0.00 65 1010.1
20260504232306 72 162 6.0 10.0 0.00 0.00 0.00 64 1010.0
20260504231807 72 238 3.0 12.0 0.00 0.00 0.00 65 1010.0
20260504231307 72 178 5.0 13.0 0.00 0.00 0.00 64 1010.1
20260504230807 71 158 7.0 12.0 0.00 0.00 0.00 64 1010.1
20260504230307 72 150 6.0 12.0 0.00 0.00 0.00 64 1010.1
20260504225807 71 248 5.0 12.0 0.00 0.00 0.00 64 1010.2
20260504224807 71 201 5.0 9.0 0.00 0.00 0.00 64 1010.3
20260504224307 71 157 5.0 10.0 0.00 0.00 0.00 64 1010.4
20260504222307 71 193 4.0 12.0 0.00 0.00 0.00 64 1010.6
20260504221807 70 168 6.0 13.0 0.00 0.00 0.00 64 1010.7
20260504221306 70 118 4.0 10.0 0.00 0.00 0.00 65 1010.7
20260504220807 70 134 5.0 8.0 0.00 0.00 0.00 65 1010.8
20260504220306 70 226 4.0 7.0 0.00 0.00 0.00 66 1010.8
20260504215807 69 180 7.0 12.0 0.00 0.00 0.00 66 1010.8
20260504214806 69 133 5.0 12.0 0.00 0.00 0.00 65 1010.9
20260504214307 69 158 3.0 12.0 0.00 0.00 0.00 66 1011.0
20260504213806 68 144 4.0 12.0 0.00 0.00 0.00 67 1011.0
20260504212807 68 188 3.0 7.0 0.00 0.00 0.00 66 1011.1
20260504212307 68 196 4.0 8.0 0.00 0.00 0.00 67 1011.2
20260504211807 67 148 6.0 10.0 0.00 0.00 0.00 68 1011.3
20260504211307 67 198 6.0 9.0 0.00 0.00 0.00 67 1011.5
20260504210806 67 188 4.0 10.0 0.00 0.00 0.00 69 1011.5
20260504210307 67 292 3.0 8.0 0.00 0.00 0.00 69 1011.7
20260504205307 66 206 4.0 9.0 0.00 0.00 0.00 69 1011.8
20260504204806 66 211 6.0 9.0 0.00 0.00 0.00 70 1011.9
20260504204307 65 156 4.0 9.0 0.00 0.00 0.00 70 1011.9
20260504203307 65 178 2.0 7.0 0.00 0.00 0.00 71 1012.0
20260504202807 64 196 4.0 10.0 0.00 0.00 0.00 72 1012.1
20260504201806 65 242 4.0 9.0 0.00 0.00 0.00 71 1012.1
20260504201306 63 194 5.0 12.0 0.00 0.00 0.00 72 1012.2
20260504200806 63 189 3.0 7.0 0.00 0.00 0.00 75 1012.2
20260504194307 62 193 3.0 9.0 0.00 0.00 0.00 76 1012.4
20260504193806 61 217 3.0 8.0 0.00 0.00 0.00 76 1012.3
20260504193306 61 202 3.0 8.0 0.00 0.00 0.00 76 1012.4
20260504192807 61 235 3.0 9.0 0.00 0.00 0.00 77 1012.5
20260504192307 60 229 3.0 8.0 0.00 0.00 0.00 77 1012.5
20260504191806 60 192 1.0 7.0 0.00 0.00 0.00 78 1012.5
20260504190306 60 191 2.0 12.0 0.00 0.00 0.00 79 1012.5
20260504185306 60 262 1.0 3.0 0.00 0.00 0.00 79 1012.6
20260504184307 59 224 3.0 7.0 0.00 0.00 0.00 80 1012.7
20260504183807 59 177 5.0 10.0 0.00 0.00 0.00 80 1012.7